| time (UTC) | temp F | wind direction | speed MPH | gust MPH | rain 1hr in | rain 24hr in | rain mn in | humidity % | barometer mb |
| 20260902130257 | 74 | 225 | 0.0 | 0.0 | 0.00 | 0.00 | 0.00 | 96 | 1020.3 |
| 20260902125752 | 74 | 222 | 0.0 | 0.0 | 0.00 | 0.00 | 0.00 | 97 | 1020.5 |
| 20260902125248 | 73 | 223 | 0.0 | 0.0 | 0.00 | 0.00 | 0.00 | 98 | 1020.4 |
| 20260902124744 | 73 | 222 | 0.0 | 0.0 | 0.00 | 0.00 | 0.00 | 98 | 1020.4 |
| 20260902124239 | 73 | 223 | 0.0 | 0.0 | 0.00 | 0.00 | 0.00 | 99 | 1020.3 |
| 20260902123729 | 72 | 225 | 0.0 | 0.0 | 0.00 | 0.00 | 0.00 | 99 | 1020.3 |
| 20260902123225 | 72 | 221 | 0.0 | 0.0 | 0.00 | 0.00 | 0.00 | 99 | 1020.4 |
| 20260902122724 | 72 | 221 | 0.0 | 0.0 | 0.00 | 0.00 | 0.00 | 99 | 1020.3 |
| 20260902122220 | 72 | 221 | 0.0 | 0.0 | 0.00 | 0.00 | 0.00 | 99 | 1020.3 |
| 20260902121720 | 72 | 221 | 0.0 | 0.0 | 0.00 | 0.00 | 0.00 | 99 | 1020.3 |
| 20260902121215 | 72 | 222 | 0.0 | 0.0 | 0.00 | 0.00 | 0.00 | 99 | 1020.2 |
| 20260902120710 | 71 | 221 | 0.0 | 0.0 | 0.00 | 0.00 | 0.00 | 99 | 1020.3 |
| 20260902120207 | 71 | 220 | 0.0 | 0.0 | 0.00 | 0.00 | 0.00 | 99 | 1020.0 |
| 20260902115706 | 71 | 220 | 0.0 | 0.0 | 0.00 | 0.00 | 0.00 | 99 | 1020.1 |
| 20260902115202 | 71 | 220 | 0.0 | 0.0 | 0.00 | 0.00 | 0.00 | 99 | 1019.9 |
| 20260902114658 | 71 | 220 | 0.0 | 0.0 | 0.00 | 0.00 | 0.00 | 99 | 1019.9 |
| 20260902114153 | 71 | 220 | 0.0 | 0.0 | 0.00 | 0.00 | 0.00 | 99 | 1019.8 |
| 20260902113649 | 71 | 220 | 0.0 | 0.0 | 0.00 | 0.00 | 0.00 | 99 | 1019.7 |
| 20260902113144 | 71 | 220 | 0.0 | 0.0 | 0.00 | 0.00 | 0.00 | 99 | 1019.6 |
| 20260902112644 | 71 | 220 | 0.0 | 0.0 | 0.00 | 0.00 | 0.00 | 99 | 1019.6 |
| 20260902112141 | 71 | 220 | 0.0 | 0.0 | 0.00 | 0.00 | 0.00 | 99 | 1019.7 |
| 20260902111636 | 71 | 220 | 0.0 | 0.0 | 0.00 | 0.00 | 0.00 | 99 | 1019.6 |
| 20260902111132 | 71 | 220 | 0.0 | 0.0 | 0.00 | 0.00 | 0.00 | 99 | 1019.3 |
| 20260902110627 | 71 | 220 | 0.0 | 0.0 | 0.00 | 0.00 | 0.00 | 99 | 1019.5 |
| 20260902110124 | 71 | 220 | 0.0 | 0.0 | 0.00 | 0.00 | 0.00 | 99 | 1019.7 |
| 20260902105623 | 71 | 220 | 0.0 | 0.0 | 0.00 | 0.00 | 0.00 | 99 | 1019.5 |
| 20260902105118 | 71 | 220 | 0.0 | 0.0 | 0.00 | 0.00 | 0.00 | 99 | 1019.5 |
| 20260902104613 | 71 | 220 | 0.0 | 0.0 | 0.00 | 0.00 | 0.00 | 99 | 1019.6 |
| 20260902104109 | 71 | 220 | 0.0 | 0.0 | 0.00 | 0.00 | 0.00 | 99 | 1019.6 |
| 20260902103608 | 71 | 220 | 0.0 | 0.0 | 0.00 | 0.00 | 0.00 | 99 | 1019.5 |
| 20260902103104 | 71 | 220 | 0.0 | 0.0 | 0.00 | 0.00 | 0.00 | 99 | 1019.4 |
| 20260902102555 | 71 | 220 | 0.0 | 0.0 | 0.00 | 0.00 | 0.00 | 99 | 1019.3 |
| 20260902102051 | 71 | 220 | 0.0 | 0.0 | 0.00 | 0.00 | 0.00 | 99 | 1019.2 |
| 20260902101547 | 71 | 220 | 0.0 | 0.0 | 0.00 | 0.00 | 0.00 | 99 | 1019.5 |
| 20260902101045 | 71 | 220 | 0.0 | 0.0 | 0.00 | 0.00 | 0.00 | 99 | 1019.3 |
| 20260902100545 | 71 | 220 | 0.0 | 0.0 | 0.00 | 0.00 | 0.00 | 99 | 1019.4 |
| 20260902100040 | 71 | 220 | 0.0 | 0.0 | 0.00 | 0.00 | 0.00 | 99 | 1019.3 |
| 20260902095540 | 71 | 220 | 0.0 | 0.0 | 0.00 | 0.00 | 0.00 | 99 | 1019.2 |
| 20260902095038 | 71 | 220 | 0.0 | 0.0 | 0.00 | 0.00 | 0.00 | 99 | 1019.2 |
| 20260902094534 | 71 | 220 | 0.0 | 0.0 | 0.00 | 0.00 | 0.00 | 99 | 1019.2 |
| 20260902094030 | 71 | 220 | 0.0 | 0.0 | 0.00 | 0.00 | 0.00 | 99 | 1019.1 |
| 20260902093525 | 71 | 220 | 0.0 | 0.0 | 0.00 | 0.00 | 0.00 | 99 | 1019.1 |
| 20260902093025 | 71 | 220 | 0.0 | 0.0 | 0.00 | 0.00 | 0.00 | 99 | 1019.2 |
| 20260902092520 | 71 | 220 | 0.0 | 0.0 | 0.00 | 0.00 | 0.00 | 99 | 1019.0 |
| 20260902092014 | 71 | 220 | 0.0 | 0.0 | 0.00 | 0.00 | 0.00 | 99 | 1018.8 |
| 20260902091510 | 71 | 220 | 0.0 | 0.0 | 0.00 | 0.00 | 0.00 | 99 | 1019.1 |
| 20260902091006 | 71 | 220 | 0.0 | 0.0 | 0.00 | 0.00 | 0.00 | 99 | 1019.2 |
| 20260902090502 | 72 | 220 | 0.0 | 0.0 | 0.00 | 0.00 | 0.00 | 99 | 1019.0 |
| 20260902090000 | 72 | 220 | 0.0 | 0.0 | 0.00 | 0.00 | 0.00 | 99 | 1019.0 |
| 20260902085455 | 72 | 220 | 0.0 | 0.0 | 0.00 | 0.00 | 0.00 | 99 | 1019.0 |
| 20260902084950 | 72 | 220 | 0.0 | 0.0 | 0.00 | 0.00 | 0.00 | 99 | 1019.0 |
| 20260902084447 | 72 | 220 | 0.0 | 0.0 | 0.00 | 0.00 | 0.00 | 99 | 1018.8 |
| 20260902083942 | 72 | 220 | 0.0 | 0.0 | 0.00 | 0.00 | 0.00 | 98 | 1018.6 |
| 20260902083442 | 72 | 220 | 0.0 | 0.0 | 0.00 | 0.00 | 0.00 | 98 | 1018.7 |
| 20260902082937 | 72 | 221 | 0.0 | 0.0 | 0.00 | 0.00 | 0.00 | 98 | 1018.5 |
| 20260902082433 | 72 | 220 | 0.0 | 0.0 | 0.00 | 0.00 | 0.00 | 98 | 1018.6 |
| 20260902081929 | 72 | 220 | 0.0 | 0.0 | 0.00 | 0.00 | 0.00 | 98 | 1018.4 |
| 20260902081425 | 72 | 221 | 0.0 | 0.0 | 0.00 | 0.00 | 0.00 | 98 | 1018.7 |
| 20260902080920 | 72 | 220 | 0.0 | 0.0 | 0.00 | 0.00 | 0.00 | 98 | 1018.5 |
| 20260902080416 | 72 | 220 | 0.0 | 0.0 | 0.00 | 0.00 | 0.00 | 98 | 1018.5 |
| 20260902075915 | 72 | 221 | 0.0 | 0.0 | 0.00 | 0.00 | 0.00 | 98 | 1018.4 |
| 20260902075412 | 72 | 220 | 0.0 | 0.0 | 0.00 | 0.00 | 0.00 | 98 | 1018.4 |
| 20260902074907 | 72 | 221 | 0.0 | 0.0 | 0.00 | 0.00 | 0.00 | 98 | 1018.3 |
| 20260902074403 | 72 | 221 | 0.0 | 0.0 | 0.00 | 0.00 | 0.00 | 98 | 1018.2 |
| 20260902073857 | 72 | 220 | 0.0 | 0.0 | 0.00 | 0.00 | 0.00 | 98 | 1018.3 |
| 20260902073354 | 72 | 220 | 0.0 | 0.0 | 0.00 | 0.00 | 0.00 | 98 | 1018.3 |
| 20260902072849 | 72 | 220 | 0.0 | 0.0 | 0.00 | 0.00 | 0.00 | 98 | 1018.4 |
| 20260902072345 | 72 | 220 | 0.0 | 0.0 | 0.00 | 0.00 | 0.00 | 98 | 1018.3 |
| 20260902071841 | 72 | 220 | 0.0 | 0.0 | 0.00 | 0.00 | 0.00 | 98 | 1018.5 |
| 20260902071340 | 72 | 220 | 0.0 | 0.0 | 0.00 | 0.00 | 0.00 | 98 | 1018.5 |
| 20260902070837 | 73 | 220 | 0.0 | 0.0 | 0.00 | 0.00 | 0.00 | 98 | 1018.5 |
| 20260902070332 | 73 | 220 | 0.0 | 0.0 | 0.00 | 0.00 | 0.00 | 98 | 1018.4 |
| 20260902065830 | 73 | 220 | 0.0 | 0.0 | 0.00 | 0.00 | 0.00 | 98 | 1018.6 |
| 20260902065326 | 73 | 220 | 0.0 | 0.0 | 0.00 | 0.00 | 0.00 | 97 | 1018.8 |
| 20260902064821 | 73 | 222 | 0.0 | 0.0 | 0.00 | 0.00 | 0.00 | 97 | 1018.6 |
| 20260902064317 | 73 | 222 | 0.0 | 0.0 | 0.00 | 0.00 | 0.00 | 97 | 1018.6 |
| 20260902063812 | 73 | 223 | 0.0 | 0.0 | 0.00 | 0.00 | 0.00 | 97 | 1018.7 |
| 20260902063307 | 73 | 223 | 0.0 | 0.0 | 0.00 | 0.00 | 0.00 | 97 | 1018.6 |
| 20260902062801 | 73 | 224 | 0.0 | 0.0 | 0.00 | 0.00 | 0.00 | 97 | 1018.7 |
| 20260902062256 | 73 | 225 | 0.0 | 0.0 | 0.00 | 0.00 | 0.00 | 97 | 1018.6 |
| 20260902061755 | 73 | 220 | 0.0 | 0.0 | 0.00 | 0.00 | 0.00 | 97 | 1018.6 |
| 20260902061250 | 73 | 220 | 0.0 | 0.0 | 0.00 | 0.00 | 0.00 | 97 | 1018.5 |
| 20260902060747 | 73 | 220 | 0.0 | 0.0 | 0.00 | 0.00 | 0.00 | 97 | 1018.5 |
| 20260902060237 | 73 | 220 | 0.0 | 0.0 | 0.00 | 0.00 | 0.00 | 97 | 1018.7 |
| 20260902055732 | 73 | 220 | 0.0 | 0.0 | 0.00 | 0.00 | 0.00 | 97 | 1018.7 |
| 20260902055229 | 73 | 220 | 0.0 | 0.0 | 0.00 | 0.00 | 0.00 | 96 | 1018.6 |
| 20260902054724 | 74 | 220 | 0.0 | 0.0 | 0.00 | 0.00 | 0.00 | 96 | 1018.7 |
| 20260902054219 | 74 | 221 | 0.0 | 0.0 | 0.00 | 0.00 | 0.00 | 96 | 1018.7 |
| 20260902053715 | 74 | 221 | 0.0 | 0.0 | 0.00 | 0.00 | 0.00 | 96 | 1018.5 |
| 20260902053214 | 74 | 221 | 0.0 | 0.0 | 0.00 | 0.00 | 0.00 | 96 | 1018.5 |
| 20260902052713 | 74 | 221 | 0.0 | 0.0 | 0.00 | 0.00 | 0.00 | 95 | 1018.7 |
| 20260902052209 | 74 | 221 | 0.0 | 0.0 | 0.00 | 0.00 | 0.00 | 95 | 1018.6 |
| 20260902051708 | 74 | 221 | 0.0 | 0.0 | 0.00 | 0.00 | 0.00 | 95 | 1018.7 |
| 20260902051203 | 74 | 221 | 0.0 | 0.0 | 0.00 | 0.00 | 0.00 | 95 | 1018.6 |
| 20260902050657 | 74 | 220 | 0.0 | 0.0 | 0.00 | 0.00 | 0.00 | 95 | 1018.6 |
| 20260902050153 | 74 | 220 | 0.0 | 0.0 | 0.00 | 0.00 | 0.00 | 95 | 1018.7 |
| 20260902045647 | 74 | 220 | 0.0 | 0.0 | 0.00 | 0.00 | 0.00 | 95 | 1018.7 |
| 20260902045144 | 74 | 220 | 0.0 | 0.0 | 0.00 | 0.00 | 0.00 | 95 | 1018.6 |
| 20260902044644 | 74 | 221 | 0.0 | 0.0 | 0.00 | 0.00 | 0.00 | 95 | 1018.5 |
| 20260902044140 | 74 | 221 | 0.0 | 0.0 | 0.00 | 0.00 | 0.00 | 94 | 1018.5 |
| 20260902043635 | 74 | 221 | 0.0 | 0.0 | 0.00 | 0.00 | 0.00 | 94 | 1018.5 |
| 20260902043130 | 74 | 221 | 0.0 | 0.0 | 0.00 | 0.00 | 0.00 | 94 | 1018.6 |
| 20260902042629 | 75 | 221 | 0.0 | 0.0 | 0.00 | 0.00 | 0.00 | 94 | 1018.5 |
| 20260902042125 | 75 | 221 | 0.0 | 0.0 | 0.00 | 0.00 | 0.00 | 94 | 1018.7 |
| 20260902041624 | 75 | 221 | 0.0 | 0.0 | 0.00 | 0.00 | 0.00 | 94 | 1018.6 |
| 20260902041119 | 75 | 221 | 0.0 | 0.0 | 0.00 | 0.00 | 0.00 | 93 | 1018.8 |
| 20260902040619 | 75 | 221 | 0.0 | 0.0 | 0.00 | 0.00 | 0.00 | 93 | 1018.6 |
| 20260902040114 | 75 | 221 | 0.0 | 0.0 | 0.00 | 0.00 | 0.00 | 93 | 1018.6 |
| 20260902035612 | 75 | 221 | 0.0 | 0.0 | 0.00 | 0.00 | 0.00 | 93 | 1018.7 |
| 20260902035108 | 75 | 221 | 0.0 | 0.0 | 0.00 | 0.00 | 0.00 | 93 | 1018.5 |
| 20260902034606 | 75 | 221 | 0.0 | 0.0 | 0.00 | 0.00 | 0.00 | 92 | 1018.7 |
| 20260902034101 | 75 | 221 | 0.0 | 0.0 | 0.00 | 0.00 | 0.00 | 92 | 1018.9 |
| 20260902033600 | 75 | 221 | 0.0 | 0.0 | 0.00 | 0.00 | 0.00 | 92 | 1018.7 |
| 20260902033055 | 75 | 221 | 0.0 | 0.0 | 0.00 | 0.00 | 0.00 | 92 | 1018.6 |
| 20260902032553 | 76 | 221 | 0.0 | 0.0 | 0.00 | 0.00 | 0.00 | 92 | 1018.7 |
| 20260902032043 | 76 | 221 | 0.0 | 0.0 | 0.00 | 0.00 | 0.00 | 92 | 1018.8 |
| 20260902031538 | 76 | 221 | 0.0 | 0.0 | 0.00 | 0.00 | 0.00 | 92 | 1018.9 |
| 20260902031034 | 76 | 221 | 0.0 | 0.0 | 0.00 | 0.00 | 0.00 | 92 | 1018.7 |
| 20260902030529 | 76 | 221 | 0.0 | 0.0 | 0.00 | 0.00 | 0.00 | 92 | 1018.5 |
| 20260902030028 | 77 | 221 | 0.0 | 0.0 | 0.00 | 0.00 | 0.00 | 91 | 1018.5 |
| 20260902025523 | 77 | 221 | 0.0 | 0.0 | 0.00 | 0.00 | 0.00 | 91 | 1018.7 |
| 20260902025018 | 77 | 221 | 0.0 | 0.0 | 0.00 | 0.00 | 0.00 | 91 | 1018.7 |
| 20260902024514 | 77 | 221 | 0.0 | 0.0 | 0.00 | 0.00 | 0.00 | 91 | 1018.7 |
| 20260902024014 | 77 | 222 | 0.0 | 0.0 | 0.00 | 0.00 | 0.00 | 90 | 1018.7 |
| 20260902023509 | 77 | 222 | 0.0 | 0.0 | 0.00 | 0.00 | 0.00 | 90 | 1018.6 |
| 20260902023004 | 77 | 222 | 0.0 | 0.0 | 0.00 | 0.00 | 0.00 | 90 | 1018.9 |
| 20260902022458 | 77 | 222 | 0.0 | 0.0 | 0.00 | 0.00 | 0.00 | 90 | 1018.7 |
| 20260902021954 | 78 | 222 | 0.0 | 0.0 | 0.00 | 0.00 | 0.00 | 90 | 1018.7 |
| 20260902021449 | 78 | 222 | 0.0 | 0.0 | 0.00 | 0.00 | 0.00 | 90 | 1018.7 |
| 20260902020944 | 78 | 221 | 0.0 | 0.0 | 0.00 | 0.00 | 0.00 | 89 | 1018.4 |
| 20260902020440 | 78 | 221 | 0.0 | 0.0 | 0.00 | 0.00 | 0.00 | 89 | 1018.5 |
| 20260902015936 | 78 | 222 | 0.0 | 0.0 | 0.00 | 0.00 | 0.00 | 89 | 1018.4 |
| 20260902015431 | 78 | 222 | 0.0 | 0.0 | 0.00 | 0.00 | 0.00 | 89 | 1018.3 |
| 20260902014926 | 79 | 222 | 0.0 | 0.0 | 0.00 | 0.00 | 0.00 | 89 | 1018.3 |
| 20260902014423 | 79 | 222 | 0.0 | 0.0 | 0.00 | 0.00 | 0.00 | 89 | 1018.3 |
| 20260902013922 | 79 | 222 | 0.0 | 0.0 | 0.00 | 0.00 | 0.00 | 88 | 1018.3 |
| 20260902013418 | 79 | 222 | 0.0 | 0.0 | 0.00 | 0.00 | 0.00 | 88 | 1018.1 |
| 20260902012913 | 79 | 222 | 0.0 | 0.0 | 0.00 | 0.00 | 0.00 | 88 | 1018.0 |
| 20260902012409 | 80 | 222 | 0.0 | 0.0 | 0.00 | 0.00 | 0.00 | 87 | 1018.0 |
| 20260902011904 | 80 | 222 | 0.0 | 0.0 | 0.00 | 0.00 | 0.00 | 86 | 1017.9 |
| 20260902011359 | 80 | 222 | 0.0 | 0.0 | 0.00 | 0.00 | 0.00 | 86 | 1018.0 |
| 20260902010859 | 80 | 222 | 0.0 | 0.0 | 0.00 | 0.00 | 0.00 | 86 | 1018.1 |
| 20260902010353 | 80 | 221 | 0.0 | 0.0 | 0.00 | 0.00 | 0.00 | 86 | 1018.0 |
| 20260902005853 | 81 | 222 | 0.0 | 0.0 | 0.00 | 0.00 | 0.00 | 85 | 1017.9 |
| 20260902005347 | 81 | 225 | 0.0 | 0.0 | 0.00 | 0.00 | 0.00 | 84 | 1017.7 |
| 20260902004843 | 81 | 225 | 0.0 | 0.0 | 0.00 | 0.00 | 0.00 | 84 | 1017.8 |
| 20260902004342 | 82 | 225 | 0.0 | 0.0 | 0.00 | 0.00 | 0.00 | 83 | 1017.8 |
| 20260902003838 | 82 | 224 | 0.0 | 0.0 | 0.00 | 0.00 | 0.00 | 83 | 1017.9 |
| 20260902003333 | 82 | 224 | 0.0 | 0.0 | 0.00 | 0.00 | 0.00 | 81 | 1017.7 |
| 20260902002829 | 83 | 225 | 0.0 | 0.0 | 0.00 | 0.00 | 0.00 | 81 | 1017.7 |
| 20260902002327 | 83 | 225 | 0.0 | 0.0 | 0.00 | 0.00 | 0.00 | 80 | 1017.5 |
| 20260902001823 | 83 | 225 | 0.0 | 0.0 | 0.00 | 0.00 | 0.00 | 80 | 1017.8 |
| 20260902001319 | 84 | 223 | 0.0 | 0.0 | 0.00 | 0.00 | 0.00 | 79 | 1017.8 |
| 20260902000818 | 84 | 223 | 0.0 | 0.0 | 0.00 | 0.00 | 0.00 | 77 | 1017.5 |
| 20260902000313 | 85 | 224 | 0.0 | 0.0 | 0.00 | 0.00 | 0.00 | 77 | 1017.7 |
| 20260901235808 | 85 | 223 | 0.0 | 0.0 | 0.00 | 0.00 | 0.00 | 76 | 1017.7 |
| 20260901235307 | 85 | 226 | 0.0 | 0.0 | 0.00 | 0.00 | 0.00 | 75 | 1017.7 |
| 20260901234802 | 86 | 226 | 0.0 | 0.0 | 0.00 | 0.00 | 0.00 | 74 | 1017.3 |
| 20260901234257 | 86 | 221 | 0.0 | 0.0 | 0.00 | 0.00 | 0.00 | 73 | 1017.7 |
| 20260901233758 | 87 | 227 | 0.0 | 0.0 | 0.00 | 0.00 | 0.00 | 73 | 1017.7 |
| 20260901233253 | 88 | 225 | 0.0 | 0.0 | 0.00 | 0.00 | 0.00 | 71 | 1017.9 |
| 20260901232749 | 88 | 225 | 0.0 | 0.0 | 0.00 | 0.00 | 0.00 | 69 | 1017.8 |
| 20260901232243 | 89 | 225 | 0.0 | 0.0 | 0.00 | 0.00 | 0.00 | 69 | 1017.9 |
| 20260901231739 | 89 | 225 | 0.0 | 0.0 | 0.00 | 0.00 | 0.00 | 67 | 1017.8 |
| 20260901231236 | 90 | 225 | 0.0 | 0.0 | 0.00 | 0.00 | 0.00 | 64 | 1017.7 |
| 20260901230726 | 90 | 225 | 0.0 | 0.0 | 0.00 | 0.00 | 0.00 | 63 | 1017.5 |
| 20260901230225 | 91 | 225 | 0.0 | 0.0 | 0.00 | 0.00 | 0.00 | 66 | 1017.9 |
| 20260901225721 | 91 | 225 | 0.0 | 0.0 | 0.00 | 0.00 | 0.00 | 62 | 1017.4 |
| 20260901225215 | 91 | 225 | 0.0 | 0.0 | 0.00 | 0.00 | 0.00 | 61 | 1017.7 |
| 20260901224711 | 91 | 225 | 0.0 | 0.0 | 0.00 | 0.00 | 0.00 | 60 | 1017.4 |
| 20260901224207 | 91 | 225 | 0.0 | 0.0 | 0.00 | 0.00 | 0.00 | 60 | 1017.5 |
| 20260901223703 | 92 | 225 | 0.0 | 0.0 | 0.00 | 0.00 | 0.00 | 58 | 1017.7 |
| 20260901223157 | 92 | 225 | 0.0 | 0.0 | 0.00 | 0.00 | 0.00 | 59 | 1017.5 |
| 20260901222654 | 92 | 225 | 0.0 | 0.0 | 0.00 | 0.00 | 0.00 | 58 | 1017.4 |
| 20260901222150 | 92 | 223 | 0.0 | 0.0 | 0.00 | 0.00 | 0.00 | 57 | 1017.4 |
| 20260901221646 | 93 | 223 | 0.0 | 0.0 | 0.00 | 0.00 | 0.00 | 56 | 1017.7 |
| 20260901221141 | 93 | 228 | 0.0 | 0.0 | 0.00 | 0.00 | 0.00 | 55 | 1017.4 |
| 20260901220640 | 93 | 229 | 0.0 | 0.0 | 0.00 | 0.00 | 0.00 | 54 | 1017.4 |
| 20260901220139 | 93 | 228 | 0.0 | 0.0 | 0.00 | 0.00 | 0.00 | 54 | 1017.5 |
| 20260901215638 | 93 | 230 | 0.0 | 0.0 | 0.00 | 0.00 | 0.00 | 54 | 1017.4 |
| 20260901215133 | 93 | 229 | 0.0 | 0.0 | 0.00 | 0.00 | 0.00 | 56 | 1017.3 |
| 20260901214631 | 92 | 226 | 0.0 | 0.0 | 0.00 | 0.00 | 0.00 | 56 | 1017.5 |
| 20260901214131 | 92 | 224 | 0.0 | 0.0 | 0.00 | 0.00 | 0.00 | 57 | 1017.4 |
| 20260901213625 | 91 | 223 | 0.0 | 0.0 | 0.00 | 0.00 | 0.00 | 61 | 1017.4 |
| 20260901213120 | 91 | 222 | 0.0 | 0.0 | 0.00 | 0.00 | 0.00 | 62 | 1017.5 |
| 20260901212619 | 91 | 222 | 0.0 | 0.0 | 0.00 | 0.00 | 0.00 | 63 | 1017.8 |
| 20260901212116 | 91 | 226 | 0.0 | 0.0 | 0.00 | 0.00 | 0.00 | 63 | 1017.7 |
| 20260901211610 | 91 | 226 | 0.0 | 0.0 | 0.00 | 0.00 | 0.00 | 60 | 1017.7 |
| 20260901211107 | 92 | 226 | 0.0 | 0.0 | 0.00 | 0.00 | 0.00 | 57 | 1017.8 |
| 20260901210602 | 92 | 226 | 0.0 | 0.0 | 0.00 | 0.00 | 0.00 | 54 | 1017.4 |
| 20260901210058 | 93 | 226 | 0.0 | 0.0 | 0.00 | 0.00 | 0.00 | 54 | 1017.7 |
| 20260901205554 | 93 | 226 | 0.0 | 0.0 | 0.00 | 0.00 | 0.00 | 52 | 1017.4 |
| 20260901205053 | 93 | 228 | 0.0 | 0.0 | 0.00 | 0.00 | 0.00 | 54 | 1017.7 |
| 20260901204550 | 93 | 226 | 0.0 | 0.0 | 0.00 | 0.00 | 0.00 | 54 | 1017.9 |
| 20260901204044 | 93 | 226 | 0.0 | 0.0 | 0.00 | 0.00 | 0.00 | 53 | 1017.7 |
| 20260901203539 | 94 | 227 | 0.0 | 0.0 | 0.00 | 0.00 | 0.00 | 51 | 1017.9 |
| 20260901203034 | 95 | 225 | 0.0 | 0.0 | 0.00 | 0.00 | 0.00 | 51 | 1018.0 |
| 20260901202528 | 94 | 225 | 0.0 | 1.0 | 0.00 | 0.00 | 0.00 | 50 | 1017.9 |
| 20260901202025 | 94 | 225 | 0.0 | 0.0 | 0.00 | 0.00 | 0.00 | 52 | 1018.1 |
| 20260901201520 | 93 | 224 | 0.0 | 1.0 | 0.00 | 0.00 | 0.00 | 52 | 1018.2 |
| 20260901201014 | 94 | 245 | 2.0 | 2.0 | 0.00 | 0.00 | 0.00 | 51 | 1018.2 |
| 20260901200508 | 94 | 228 | 0.0 | 1.0 | 0.00 | 0.00 | 0.00 | 50 | 1018.2 |
| 20260901200009 | 95 | 231 | 1.0 | 1.0 | 0.00 | 0.00 | 0.00 | 50 | 1018.3 |
| 20260901195506 | 95 | 216 | 0.0 | 1.0 | 0.00 | 0.00 | 0.00 | 49 | 1018.4 |
| 20260901195006 | 95 | 269 | 1.0 | 2.0 | 0.00 | 0.00 | 0.00 | 49 | 1018.4 |
| 20260901194501 | 94 | 242 | 1.0 | 2.0 | 0.00 | 0.00 | 0.00 | 50 | 1018.2 |
| 20260901193956 | 93 | 225 | 1.0 | 1.0 | 0.00 | 0.00 | 0.00 | 50 | 1018.6 |
| 20260901193451 | 94 | 228 | 0.0 | 1.0 | 0.00 | 0.00 | 0.00 | 54 | 1018.6 |
| 20260901192950 | 93 | 225 | 0.0 | 1.0 | 0.00 | 0.00 | 0.00 | 52 | 1018.7 |
| 20260901192446 | 93 | 226 | 0.0 | 1.0 | 0.00 | 0.00 | 0.00 | 55 | 1018.7 |
| 20260901191942 | 91 | 231 | 0.0 | 1.0 | 0.00 | 0.00 | 0.00 | 58 | 1018.9 |
| 20260901191438 | 92 | 226 | 0.0 | 1.0 | 0.00 | 0.00 | 0.00 | 57 | 1018.9 |
| 20260901190933 | 92 | 237 | 1.0 | 1.0 | 0.00 | 0.00 | 0.00 | 57 | 1019.1 |
| 20260901190428 | 92 | 216 | 1.0 | 2.0 | 0.00 | 0.00 | 0.00 | 57 | 1019.0 |
| 20260901185926 | 93 | 227 | 0.0 | 2.0 | 0.00 | 0.00 | 0.00 | 55 | 1018.9 |
| 20260901185426 | 92 | 226 | 0.0 | 1.0 | 0.00 | 0.00 | 0.00 | 53 | 1018.8 |
| 20260901184920 | 93 | 227 | 0.0 | 0.0 | 0.00 | 0.00 | 0.00 | 54 | 1019.1 |
| 20260901184416 | 93 | 224 | 0.0 | 0.0 | 0.00 | 0.00 | 0.00 | 52 | 1019.2 |
| 20260901183911 | 93 | 208 | 1.0 | 2.0 | 0.00 | 0.00 | 0.00 | 52 | 1019.3 |
| 20260901183410 | 94 | 235 | 1.0 | 1.0 | 0.00 | 0.00 | 0.00 | 52 | 1019.3 |
| 20260901182907 | 94 | 229 | 1.0 | 1.0 | 0.00 | 0.00 | 0.00 | 52 | 1019.1 |
| 20260901182402 | 95 | 231 | 1.0 | 2.0 | 0.00 | 0.00 | 0.00 | 50 | 1019.1 |
| 20260901181857 | 95 | 222 | 2.0 | 2.0 | 0.00 | 0.00 | 0.00 | 50 | 1019.3 |
| 20260901181357 | 95 | 218 | 1.0 | 2.0 | 0.00 | 0.00 | 0.00 | 52 | 1019.3 |
| 20260901180855 | 94 | 223 | 0.0 | 2.0 | 0.00 | 0.00 | 0.00 | 54 | 1019.5 |
| 20260901180355 | 93 | 207 | 1.0 | 2.0 | 0.00 | 0.00 | 0.00 | 54 | 1019.2 |
| 20260901175853 | 92 | 227 | 0.0 | 0.0 | 0.00 | 0.00 | 0.00 | 58 | 1019.5 |
| 20260901175348 | 92 | 228 | 0.0 | 0.0 | 0.00 | 0.00 | 0.00 | 56 | 1019.6 |
| 20260901174844 | 93 | 229 | 0.0 | 1.0 | 0.00 | 0.00 | 0.00 | 56 | 1019.4 |
| 20260901174339 | 92 | 228 | 0.0 | 2.0 | 0.00 | 0.00 | 0.00 | 57 | 1019.6 |
| 20260901173835 | 92 | 231 | 1.0 | 2.0 | 0.00 | 0.00 | 0.00 | 57 | 1019.8 |
| 20260901173329 | 92 | 220 | 0.0 | 1.0 | 0.00 | 0.00 | 0.00 | 58 | 1019.8 |
| 20260901172826 | 93 | 222 | 0.0 | 2.0 | 0.00 | 0.00 | 0.00 | 55 | 1019.8 |
| 20260901172325 | 93 | 215 | 2.0 | 2.0 | 0.00 | 0.00 | 0.00 | 54 | 1019.8 |
| 20260901171823 | 91 | 249 | 1.0 | 2.0 | 0.00 | 0.00 | 0.00 | 57 | 1020.0 |
| 20260901171322 | 89 | 231 | 0.0 | 2.0 | 0.00 | 0.00 | 0.00 | 59 | 1020.1 |
| 20260901170817 | 89 | 219 | 0.0 | 1.0 | 0.00 | 0.00 | 0.00 | 63 | 1020.1 |
| 20260901170317 | 90 | 234 | 1.0 | 2.0 | 0.00 | 0.00 | 0.00 | 60 | 1020.2 |
| 20260901165815 | 91 | 227 | 0.0 | 0.0 | 0.00 | 0.00 | 0.00 | 59 | 1020.3 |
| 20260901165310 | 92 | 228 | 0.0 | 0.0 | 0.00 | 0.00 | 0.00 | 58 | 1020.3 |
| 20260901164807 | 92 | 224 | 0.0 | 0.0 | 0.00 | 0.00 | 0.00 | 58 | 1020.1 |
| 20260901164302 | 91 | 218 | 1.0 | 1.0 | 0.00 | 0.00 | 0.00 | 59 | 1020.3 |
| 20260901163756 | 91 | 222 | 1.0 | 3.0 | 0.00 | 0.00 | 0.00 | 61 | 1020.1 |
| 20260901163251 | 91 | 220 | 1.0 | 5.0 | 0.00 | 0.00 | 0.00 | 60 | 1020.5 |
| 20260901162746 | 91 | 206 | 1.0 | 2.0 | 0.00 | 0.00 | 0.00 | 61 | 1020.7 |
| 20260901162245 | 91 | 219 | 1.0 | 2.0 | 0.00 | 0.00 | 0.00 | 58 | 1020.5 |
| 20260901161744 | 90 | 223 | 0.0 | 1.0 | 0.00 | 0.00 | 0.00 | 59 | 1020.5 |
| 20260901161239 | 90 | 200 | 1.0 | 2.0 | 0.00 | 0.00 | 0.00 | 62 | 1020.7 |
| 20260901160735 | 89 | 201 | 1.0 | 3.0 | 0.00 | 0.00 | 0.00 | 63 | 1020.5 |
| 20260901160231 | 90 | 224 | 0.0 | 2.0 | 0.00 | 0.00 | 0.00 | 63 | 1020.8 |
| 20260901155729 | 89 | 215 | 1.0 | 2.0 | 0.00 | 0.00 | 0.00 | 64 | 1020.9 |
| 20260901155224 | 89 | 225 | 1.0 | 2.0 | 0.00 | 0.00 | 0.00 | 64 | 1020.9 |
| 20260901154720 | 89 | 206 | 2.0 | 2.0 | 0.00 | 0.00 | 0.00 | 66 | 1020.9 |
| 20260901154214 | 88 | 163 | 2.0 | 2.0 | 0.00 | 0.00 | 0.00 | 66 | 1021.0 |
| 20260901153710 | 88 | 217 | 1.0 | 3.0 | 0.00 | 0.00 | 0.00 | 67 | 1021.0 |
| 20260901153203 | 87 | 221 | 0.0 | 2.0 | 0.00 | 0.00 | 0.00 | 68 | 1021.2 |
| 20260901152658 | 87 | 218 | 0.0 | 1.0 | 0.00 | 0.00 | 0.00 | 67 | 1021.2 |
| 20260901152157 | 87 | 182 | 1.0 | 3.0 | 0.00 | 0.00 | 0.00 | 68 | 1021.3 |
| 20260901151653 | 86 | 218 | 1.0 | 3.0 | 0.00 | 0.00 | 0.00 | 71 | 1021.2 |
| 20260901151152 | 86 | 215 | 1.0 | 2.0 | 0.00 | 0.00 | 0.00 | 71 | 1021.1 |
| 20260901150651 | 86 | 219 | 1.0 | 2.0 | 0.00 | 0.00 | 0.00 | 72 | 1021.1 |
| 20260901150150 | 85 | 219 | 0.0 | 0.0 | 0.00 | 0.00 | 0.00 | 72 | 1021.3 |
| 20260901145647 | 85 | 220 | 0.0 | 0.0 | 0.00 | 0.00 | 0.00 | 74 | 1021.3 |
| 20260901145142 | 84 | 226 | 1.0 | 1.0 | 0.00 | 0.00 | 0.00 | 75 | 1021.2 |
| 20260901144638 | 83 | 225 | 0.0 | 1.0 | 0.00 | 0.00 | 0.00 | 78 | 1021.3 |
| 20260901144132 | 83 | 231 | 0.0 | 1.0 | 0.00 | 0.00 | 0.00 | 78 | 1021.1 |
| 20260901143628 | 83 | 228 | 0.0 | 1.0 | 0.00 | 0.00 | 0.00 | 78 | 1021.2 |
| 20260901143124 | 82 | 227 | 0.0 | 0.0 | 0.00 | 0.00 | 0.00 | 79 | 1021.2 |
| 20260901142620 | 82 | 224 | 0.0 | 1.0 | 0.00 | 0.00 | 0.00 | 79 | 1021.3 |
| 20260901142119 | 81 | 228 | 1.0 | 2.0 | 0.00 | 0.00 | 0.00 | 79 | 1021.3 |
| 20260901141614 | 81 | 227 | 0.0 | 1.0 | 0.00 | 0.00 | 0.00 | 78 | 1021.1 |
| 20260901141109 | 81 | 226 | 0.0 | 0.0 | 0.00 | 0.00 | 0.00 | 80 | 1021.3 |
| 20260901140608 | 81 | 225 | 0.0 | 0.0 | 0.00 | 0.00 | 0.00 | 81 | 1021.4 |
| 20260901140107 | 82 | 220 | 0.0 | 0.0 | 0.00 | 0.00 | 0.00 | 80 | 1021.4 |
| 20260901135606 | 80 | 221 | 0.0 | 0.0 | 0.00 | 0.00 | 0.00 | 83 | 1021.3 |
| 20260901135056 | 78 | 225 | 0.0 | 0.0 | 0.00 | 0.00 | 0.00 | 88 | 1021.2 |
| 20260901134552 | 79 | 225 | 0.0 | 0.0 | 0.00 | 0.00 | 0.00 | 88 | 1021.3 |
| 20260901134052 | 78 | 226 | 0.0 | 0.0 | 0.00 | 0.00 | 0.00 | 87 | 1021.3 |
| 20260901133551 | 76 | 226 | 0.0 | 0.0 | 0.00 | 0.00 | 0.00 | 92 | 1021.2 |
| 20260901133050 | 75 | 226 | 0.0 | 0.0 | 0.00 | 0.00 | 0.00 | 93 | 1021.4 |
| 20260901132545 | 75 | 228 | 0.0 | 0.0 | 0.00 | 0.00 | 0.00 | 93 | 1021.3 |
| 20260901132044 | 74 | 225 | 0.0 | 0.0 | 0.00 | 0.00 | 0.00 | 95 | 1021.5 |
| 20260901131538 | 73 | 221 | 0.0 | 0.0 | 0.00 | 0.00 | 0.00 | 95 | 1021.4 |
| 20260901131029 | 73 | 221 | 0.0 | 0.0 | 0.00 | 0.00 | 0.00 | 96 | 1021.3 |